Dewpoint
51 52 56 56 56 56 55 55 55 55 54 54 54 54 55 55 55 56 55 54 54 55 55 55 55 56 57 58 59 63 68 67
49 51 51 53 53 54 54 53 53 52 52 51 51 50 50 51 51 52 51 51 51 51 51 51 51 51 52 53 55 62 67 67
50 49 49 48 48 49 50 50 49 48 47 49 46 46 46 45 47 48 49 48 47 48 49 48 49 46 48 50 52 53 54 62
45 46 46 46 42 46 47 46 45 45 45 45 44 44 44 42 44 45 45 46 45 45 45 45 43 42 42 45 44 47 49 54
42 45 46 45 44 43 42 43 43 43 44 43 43 41 42 40 40 40 40 42 38 39 40 39 42 43 42 44 45 46 45 48
41 43 44 45 42 42 42 40 40 39 40 42 40 38 40 40 38 38 38 38 39 39 39 42 42 43 43 44 45 44 44 46
41 42 42 42 43 42 40 39 38 39 38 39 38 37 39 38 38 37 36 37 37 37 38 39 40 40 41 42 42 43 43 42
40 40 42 41 41 41 39 38 38 37 37 38 39 37 37 37 37 36 35 36 36 37 37 38 38 40 40 41 42 42 42 43
40 40 41 40 39 38 37 36 36 35 35 37 37 37 36 37 35 35 35 36 37 37 37 37 37 37 38 39 40 42 41 42
38 38 39 39 38 36 34 35 35 34 34 35 36 36 35 35 33 34 35 35 35 35 35 36 36 37 38 38 39 40 41 42
37 39 38 37 37 35 35 36 34 33 34 33 35 36 35 33 33 34 35 34 34 34 35 36 35 36 36 37 39 39 41 41
37 37 37 37 35 34 33 33 33 33 33 33 33 34 35 33 33 34 34 33 33 33 34 35 35 35 33 36 37 41 43 43
35 37 37 35 34 32 32 31 32 32 32 33 32 32 34 33 32 32 33 33 32 33 32 33 33 34 34 35 38 43 44 40
35 35 35 34 34 33 32 31 31 31 31 31 31 30 32 30 31 31 32 32 32 31 31 31 32 33 32 35 35 38 38 37
33 33 34 34 33 31 31 30 29 28 29 29 28 29 30 31 30 30 30 31 29 29 29 30 29 31 33 32 33 32 33 39
33 33 33 32 32 29 27 24 23 27 27 26 25 26 26 28 29 28 29 30 29 28 28 28 28 29 30 29 31 33 34 32
32 32 31 30 29 28 25 25 24 24 24 23 22 22 24 25 27 27 27 27 28 28 27 27 27 27 28 28 29 30 35 33
31 30 28 28 25 24 23 23 22 21 21 19 19 20 21 22 24 25 25 26 26 26 27 27 26 26 27 28 28 29 28 29
30 28 26 23 19 19 20 20 20 20 20 20 18 17 19 20 21 22 22 23 24 25 25 26 26 26 27 27 28 28 29 29
30 27 25 18 19 19 20 20 19 20 20 19 19 19 18 19 19 20 21 22 22 22 22 24 26 27 26 27 27 27 28 29
Lifted_Index
-1 -0 -0 0 2 4 6 8 9 9 10 10 10 10 10 10 10 9 9 8 6 5 3 2 0 -1 -1 -2 -3 -3 -4 -4
0 1 1 3 5 7 8 9 10 10 10 11 11 11 11 11 11 11 11 11 10 9 8 6 5 3 1 -0 -1 -2 -3 -4
2 3 5 7 9 10 10 11 11 11 11 11 11 11 11 11 11 12 12 12 13 12 12 11 10 9 7 5 3 1 -1 -2
5 6 8 10 11 11 11 11 11 11 11 11 11 11 11 11 11 12 12 12 12 12 12 12 12 12 11 10 9 7 4 2
8 10 11 11 11 11 11 11 11 11 11 11 11 11 11 11 11 11 12 12 12 12 12 12 12 12 12 12 12 11 9 8
10 11 11 11 11 11 11 10 10 10 10 11 11 11 11 11 11 11 11 12 12 12 12 12 12 12 12 12 12 12 11 11
10 10 11 11 11 11 11 11 10 11 11 11 11 11 11 11 11 11 12 12 12 12 12 12 12 12 12 12 12 12 12 12
10 10 11 11 11 11 11 11 11 11 11 11 11 11 11 12 12 12 13 13 13 13 12 12 12 12 12 12 12 12 12 12
9 10 11 11 11 11 11 11 11 11 11 12 12 12 13 13 13 13 13 13 13 13 13 12 12 12 12 12 12 12 12 12
9 10 10 11 11 11 11 11 11 11 12 12 13 13 14 13 13 13 13 13 13 13 13 12 12 12 12 12 12 12 12 12
9 10 10 10 11 11 11 11 11 12 13 13 14 14 14 13 13 13 13 13 13 13 13 13 12 12 12 12 12 12 12 12
9 9 9 10 11 11 11 11 12 13 14 14 14 14 14 13 13 13 13 13 13 13 13 13 13 13 12 12 12 12 12 12
8 8 9 10 11 11 11 12 13 14 14 15 15 14 14 14 13 13 13 13 13 13 13 13 13 13 12 11 11 12 12 12
7 7 9 10 11 11 12 12 13 14 14 15 15 15 15 15 14 14 14 13 13 13 13 12 12 12 12 11 10 11 12 12
7 8 9 10 11 11 12 12 12 13 13 14 14 15 15 15 15 15 14 14 13 13 12 11 11 11 11 11 11 10 11 11
7 8 9 11 12 12 11 11 11 12 13 13 14 15 15 15 15 15 15 14 14 13 13 11 10 10 10 11 11 11 10 10
7 8 9 11 12 12 12 11 11 12 13 13 14 15 15 15 15 15 15 15 14 14 13 11 10 9 9 9 10 11 11 10
7 7 9 10 12 12 12 12 12 12 13 13 14 15 15 15 16 15 15 15 15 15 14 13 11 10 9 8 9 9 10 11
6 7 8 9 11 12 12 13 13 13 13 13 14 14 15 15 16 16 16 16 16 15 15 14 13 12 10 9 9 10 11 11
7 7 7 9 11 12 13 13 14 13 13 14 14 14 15 15 16 16 16 16 16 15 15 14 14 13 11 10 9 10 11 12